Tracking 29528 objects as of 13-Sep-2024
HD Live streaming from Space Station
objects crossing your sky now

ARIANE 1 R/B

Track ARIANE 1 R/B now!
10-day predictions


NORAD ID: 16615
Int'l Code: 1986-019C
Perigee: 780.9 km
Apogee: 799.0 km
Inclination: 98.3 °
Period: 100.5 minutes
Semi major axis: 7160 km
RCS: 7.0687 m2 (large)
Launch date: February 22, 1986
Source: France (FR)
Launch site: FRENCH GUIANA (FRGUI)

Note: This is a ROCKET BODY
Your satellite tracking list
Your tracking list is empty




NASA's NSSDC Master Catalog

Two Line Element Set (TLE):
1 16615U 86019C   24256.63743439  .00001760  00000-0  66179-3 0  9997
2 16615  98.2716 289.3940 0012627 134.4279 338.9532 14.32681462 17858
Source of the keplerian elements: AFSPC